[[{"header":{"parameterUnit":"m.s-1","parameterCategory":1,"la1":30.2991,"la2":30.254,"lo1":-89.0895,"lo2":-89.0444,"dy":0.0017,"dx":0.0017,"nx":28,"ny":28,"refTime":"2024-02-21T09:00:00:Z","depth":0,"parameterNumber":2,"parameterNumberName":"U-component_of_WINDS"},"data":[0,0,0,0,0,0,0,0,0,0,0,0,0,0,0,0,0,0,0,0,0,0,0,0,0,0,0,0,0,0,0,0,0,0,0,0,0,0,0,0,0,0,0,0,0,0,0,0,0,0,0,0,0,0,0,0,0,0,-0.9165,-0.9165,0,-0.9176,-0.9176,-0.9176,-0.9187,-0.9188,-0.9188,-0.9188,-0.9199,-0.9199,-0.92,0,0,0,0,0,0,0,0,0,0,0,0,0,-0.9153,-0.9153,-0.9165,-0.9165,-0.9165,-0.9176,-0.9176,-0.9176,-0.9187,-0.9188,-0.9188,-0.9188,-0.9199,-0.9199,-0.92,0,0,0,0,0,0,0,0,0,0,0,0,0,-0.9161,-0.9153,-0.9165,-0.9172,-0.9173,-0.9176,-0.9176,-0.9176,-0.9187,-0.9188,-0.9188,-0.9188,-0.9199,-0.9199,-0.92,-0.9197,0,0,-0.92,-0.92,0,0,0,0,0,0,0,0,-0.916,-0.9161,-0.9171,-0.9171,-0.9172,-0.9181,-0.9176,-0.9183,-0.9187,-0.9182,-0.9188,-0.9188,-0.9193,-0.9194,-0.9195,-0.9197,-0.9198,-0.92,-0.9201,-0.9201,-0.9201,0,0,0,0,0,0,0,-0.916,-0.9161,-0.9169,-0.9171,-0.9172,-0.9175,-0.9176,-0.9178,-0.9186,-0.9182,-0.9183,-0.9184,-0.9193,-0.9195,-0.9196,-0.9198,-0.92,-0.9201,-0.9201,-0.9201,-0.9198,-0.9198,0,0,0,0,0,0,-0.9158,-0.916,-0.9169,-0.917,-0.9167,-0.9175,-0.9176,-0.9178,-0.9186,-0.9187,-0.9184,-0.9185,-0.9194,-0.9195,-0.9196,-0.9193,-0.9201,-0.9201,-0.9201,-0.9199,-0.9198,-0.9198,0,0,0,0,0,0,-0.9158,-0.9159,-0.9168,-0.9165,-0.9167,-0.9175,-0.9176,-0.9178,-0.9179,-0.9187,-0.9189,-0.9184,-0.9195,-0.9196,-0.9197,-0.9194,-0.9201,-0.9201,-0.9199,-0.9199,-0.9198,-0.9187,0,0,0,0,0,0,-0.9157,-0.9158,-0.9157,-0.9165,-0.9167,-0.9169,-0.9176,-0.9178,-0.918,-0.9181,-0.9188,-0.9189,-0.9195,-0.9196,-0.9197,-0.9194,-0.9201,-0.9199,-0.9199,-0.9198,-0.9188,-0.9187,-0.9186,0,0,0,0,0,-0.9157,-0.9154,-0.9157,-0.9158,-0.9165,-0.9168,-0.9169,-0.9176,-0.918,-0.9179,-0.9184,-0.9189,-0.9194,-0.9196,-0.9197,-0.9194,-0.9199,-0.9199,-0.9198,-0.9189,-0.9187,-0.9186,0,0,0,0,0,0,-0.9146,-0.9155,-0.9159,-0.9158,-0.9162,-0.917,-0.9169,-0.9174,-0.9177,-0.9178,-0.9186,-0.9188,-0.9188,-0.9191,-0.9193,-0.9192,-0.9197,-0.9197,-0.919,-0.9188,-0.9187,-0.9186,-0.9202,0,0,0,0,0,-0.9143,-0.9145,-0.9153,-0.9151,-0.9153,-0.9161,-0.9162,-0.9167,-0.9172,-0.9174,-0.9179,-0.9183,-0.9186,-0.9187,-0.919,-0.9189,-0.9191,-0.9188,-0.9186,-0.9185,-0.9185,-0.9185,-0.9183,-0.9197,-0.9197,-0.9197,0,0,-0.9138,-0.9143,-0.9143,-0.9149,-0.9153,-0.9155,-0.9162,-0.9164,-0.9165,-0.9174,-0.9175,-0.9179,-0.9185,-0.9184,-0.9184,-0.9187,-0.9182,-0.9185,-0.9184,-0.9184,-0.9184,-0.9183,-0.9182,-0.9196,-0.9196,-0.9196,0,0,-0.9129,-0.9133,-0.9132,-0.9136,-0.9142,-0.9147,-0.9147,-0.9154,-0.9157,-0.9159,-0.9166,-0.9167,-0.9172,-0.9175,-0.9178,-0.9171,-0.9175,-0.9171,-0.9165,-0.9164,-0.9163,-0.9162,-0.916,-0.9159,-0.9171,-0.9171,-0.9171,0,-0.9121,-0.9124,-0.9131,-0.9132,-0.9135,-0.9143,-0.9143,-0.9146,-0.9152,-0.9154,-0.9157,-0.9163,-0.9167,-0.9168,-0.9166,-0.9168,-0.9168,-0.917,-0.9163,-0.9162,-0.9161,-0.9159,-0.9158,-0.917,-0.917,-0.917,-0.917,0,-0.9114,-0.9116,-0.9115,-0.9121,-0.9123,-0.9123,-0.9131,-0.9133,-0.9137,-0.9142,-0.9144,-0.9149,-0.9153,-0.9154,-0.9158,-0.9155,-0.9157,-0.9161,-0.9167,-0.9159,-0.9157,-0.9156,-0.9169,-0.917,-0.917,-0.917,0,0,-0.9098,-0.9109,-0.9108,-0.9111,-0.9118,-0.912,-0.9121,-0.9125,-0.9126,-0.913,-0.9131,-0.9135,-0.9139,-0.9142,-0.9147,-0.9146,-0.914,-0.9151,-0.9151,-0.9149,-0.9137,-0.9134,-0.9132,-0.9144,-0.9144,-0.9144,-0.9137,0,-0.909,-0.9092,-0.9099,-0.9098,-0.91,-0.9108,-0.9109,-0.9114,-0.9118,-0.9121,-0.9126,-0.9128,-0.9134,-0.9136,-0.9136,-0.9141,-0.9138,-0.9142,-0.9145,-0.9145,-0.9143,-0.9131,-0.9127,-0.912,-0.9136,-0.9136,-0.9136,0,-0.9081,-0.9085,-0.9084,-0.9092,-0.9093,-0.9093,-0.9098,-0.91,-0.9105,-0.9109,-0.9112,-0.9118,-0.9119,-0.9125,-0.9127,-0.9129,-0.9131,-0.9134,-0.9134,-0.9134,-0.9139,-0.9131,-0.9118,-0.9117,-0.9134,-0.9135,-0.9135,0,-0.9068,-0.9074,-0.9074,-0.9077,-0.9085,-0.9085,-0.9089,-0.9095,-0.9097,-0.9101,-0.9103,-0.9107,-0.9109,-0.9112,-0.9119,-0.9122,-0.912,-0.9126,-0.9123,-0.9123,-0.9122,-0.9122,-0.9109,-0.9124,-0.9124,-0.9124,-0.9124,0,-0.9059,-0.9058,-0.9069,-0.9069,-0.9069,-0.9077,-0.9077,-0.9081,-0.9086,-0.9088,-0.9096,-0.9097,-0.9106,-0.9108,-0.9114,-0.9115,-0.9116,-0.9118,-0.912,-0.9117,-0.9117,-0.9118,-0.9119,-0.9123,-0.9123,-0.9123,-0.9123,0,-0.9045,-0.9052,-0.9053,-0.9061,-0.9064,-0.9063,-0.907,-0.9071,-0.9076,-0.9078,-0.9079,-0.9087,-0.909,-0.9098,-0.9103,-0.9107,-0.9106,-0.9109,-0.9104,-0.9105,-0.9101,-0.9101,-0.9088,-0.9087,-0.9103,-0.9102,-0.9102,0,-0.9038,-0.9037,-0.9046,-0.9047,-0.9051,-0.9053,-0.9055,-0.9064,-0.9066,-0.9072,-0.9072,-0.9076,-0.9079,-0.9084,-0.9091,-0.9095,-0.9097,-0.9093,-0.9098,-0.9096,-0.9097,-0.9097,-0.9097,-0.9091,-0.9091,-0.9091,-0.9091,0,-0.9024,-0.9028,-0.9031,-0.9035,-0.9038,-0.9042,-0.9046,-0.9047,-0.9056,-0.9058,-0.9061,-0.9064,-0.9069,-0.9073,-0.9078,-0.9082,-0.9088,-0.9089,-0.9088,-0.9086,-0.9083,-0.9084,-0.91,-0.9089,-0.9089,-0.9089,-0.9089,-0.909,-0.9013,-0.9014,-0.902,-0.9023,-0.9027,-0.9031,-0.9032,-0.9038,-0.904,-0.9045,-0.905,-0.9053,-0.9059,-0.9066,-0.907,-0.9072,-0.9075,-0.9074,-0.9074,-0.9074,-0.9073,-0.9083,-0.9073,-0.9073,-0.9073,-0.9073,-0.9074,0,-0.9,-0.9005,-0.9008,-0.9013,-0.9016,-0.9021,-0.9027,-0.9028,-0.9031,-0.9036,-0.9039,-0.9043,-0.9046,-0.9053,-0.9058,-0.9058,-0.9061,-0.9059,-0.9059,-0.906,-0.907,-0.907,-0.9057,-0.9057,-0.9057,-0.9057,-0.9057,-0.9057,-0.8994,-0.8994,-0.8999,-0.9002,-0.9006,-0.9009,-0.9011,-0.9015,-0.9019,-0.9023,-0.9026,-0.9031,-0.9037,-0.9042,-0.9045,-0.9047,-0.9048,-0.9045,-0.9048,-0.9057,-0.9059,-0.906,-0.906,-0.9046,-0.9046,-0.9038,-0.9038,-0.9038]},{"header":{"parameterUnit":"m.s-1","parameterCategory":1,"la1":30.2991,"la2":30.254,"lo1":-89.0895,"lo2":-89.0444,"dy":0.0017,"dx":0.0017,"nx":28,"ny":28,"refTime":"2024-02-21T09:00:00:Z","depth":0,"parameterNumber":3,"parameterNumberName":"V-component_of_WINDS"},"data":[0,0,0,0,0,0,0,0,0,0,0,0,0,0,0,0,0,0,0,0,0,0,0,0,0,0,0,0,0,0,0,0,0,0,0,0,0,0,0,0,0,0,0,0,0,0,0,0,0,0,0,0,0,0,0,0,0,0,3.8798,3.8799,0,3.8909,3.891,3.8911,3.8881,3.8879,3.8877,3.8875,3.8987,3.8992,3.8997,0,0,0,0,0,0,0,0,0,0,0,0,0,3.8561,3.8565,3.8798,3.8799,3.8801,3.8909,3.891,3.8912,3.8882,3.8879,3.8876,3.8874,3.8986,3.8991,3.8998,0,0,0,0,0,0,0,0,0,0,0,0,0,3.8667,3.8567,3.8798,3.8799,3.88,3.8908,3.891,3.8912,3.8882,3.8879,3.8876,3.8873,3.8984,3.8991,3.8998,3.9112,0,0,3.9022,3.9025,0,0,0,0,0,0,0,0,3.8661,3.8675,3.8797,3.8799,3.8801,3.8878,3.8867,3.8979,3.8883,3.8851,3.8875,3.8871,3.8953,3.8963,3.8991,3.9117,3.9122,3.9022,3.9027,3.903,3.9032,0,0,0,0,0,0,0,3.8653,3.8671,3.8842,3.8799,3.8801,3.8794,3.8805,3.8888,3.892,3.8854,3.8852,3.8865,3.8954,3.8984,3.8994,3.9123,3.9022,3.9029,3.9033,3.9036,3.9348,3.9352,0,0,0,0,0,0,3.8645,3.8665,3.8838,3.8845,3.8721,3.8801,3.8814,3.8856,3.8919,3.8925,3.8868,3.8864,3.8973,3.8985,3.8998,3.9135,3.903,3.9037,3.9041,3.9345,3.9349,3.9353,0,0,0,0,0,0,3.864,3.8661,3.8834,3.8754,3.8776,3.8808,3.8857,3.886,3.8891,3.8929,3.8935,3.8894,3.8971,3.8987,3.9084,3.9139,3.9041,3.9047,3.934,3.9346,3.9351,3.9411,0,0,0,0,0,0,3.8633,3.8659,3.8703,3.8756,3.878,3.8919,3.886,3.8865,3.8904,3.8899,3.8955,3.8961,3.8969,3.9073,3.9091,3.9147,3.9053,3.9336,3.9343,3.935,3.9404,3.9418,3.9429,0,0,0,0,0,3.8625,3.8714,3.8705,3.8726,3.8835,3.8922,3.8936,3.8944,3.8909,3.8953,3.8978,3.8959,3.9129,3.9083,3.9104,3.9163,3.9332,3.9341,3.9349,3.9398,3.9415,3.9429,0,0,0,0,0,0,3.8666,3.8721,3.8711,3.8821,3.8867,3.8917,3.8972,3.8961,3.9018,3.9011,3.9019,3.9032,3.9131,3.9156,3.9103,3.9276,3.9226,3.9239,3.9256,3.9272,3.9285,3.9277,3.906,0,0,0,0,0,3.8688,3.8754,3.8799,3.8891,3.8915,3.894,3.8977,3.898,3.9028,3.9047,3.9079,3.9126,3.919,3.9232,3.9294,3.9407,3.9419,3.9458,3.9471,3.9481,3.9492,3.9556,3.9574,3.9381,3.9381,3.9381,0,0,3.8734,3.8772,3.8813,3.89,3.8936,3.9004,3.8956,3.903,3.9081,3.9058,3.9152,3.9177,3.923,3.9336,3.9385,3.9361,3.9548,3.9492,3.95,3.9506,3.9566,3.9584,3.9601,3.9387,3.9386,3.9385,0,0,3.8853,3.8888,3.897,3.9007,3.9062,3.9078,3.9098,3.915,3.9166,3.926,3.9245,3.9305,3.9415,3.9454,3.9488,3.9623,3.9608,3.9642,3.9709,3.977,3.9785,3.9799,3.9848,3.9865,3.9653,3.9653,3.9653,0,3.8903,3.9005,3.9013,3.9088,3.9127,3.911,3.9193,3.9229,3.9301,3.9328,3.93,3.9439,3.9473,3.9589,3.9622,3.965,3.9673,3.9636,3.9783,3.9796,3.9809,3.9856,3.9874,3.9657,3.9657,3.9656,3.9656,0,3.9065,3.9136,3.9195,3.9266,3.9311,3.939,3.9409,3.9454,3.9453,3.9472,3.9569,3.961,3.9679,3.9707,3.9706,3.9823,3.9806,3.978,3.973,3.9831,3.9875,3.9893,3.9663,3.9661,3.966,3.9659,0,0,3.9213,3.9288,3.9309,3.9342,3.9402,3.9457,3.9535,3.9604,3.9643,3.9693,3.9759,3.9853,3.983,3.9869,3.9872,3.9926,4.0031,3.9894,3.9895,3.9919,4.0164,4.0184,4.0204,4.0021,4.0025,4.0028,4.016,0,3.9338,3.9476,3.9485,3.961,3.9676,3.9661,3.9729,3.9774,3.9794,3.9853,3.9875,3.9942,3.9906,3.9929,3.9982,4.0007,4.0081,3.9998,4.0084,4.0087,4.0072,4.0227,4.0248,4.0371,4.0177,4.018,4.0182,0,3.9502,3.9558,3.969,3.9742,3.977,3.9831,3.9895,3.9952,4.0002,4.0013,4.0056,4.0052,4.0133,4.0079,4.019,4.0134,4.0169,4.0187,4.0192,4.0201,4.0141,4.0242,4.041,4.0429,4.0209,4.0207,4.0205,0,3.9598,3.9707,3.98,3.9828,3.989,3.9934,3.9962,4.0009,4.005,4.0105,4.0132,4.0197,4.0232,4.0282,4.0296,4.0255,4.0407,4.0354,4.0419,4.0419,4.0453,4.045,4.063,4.0474,4.0473,4.0473,4.0473,0,3.9737,3.9819,3.9845,3.9902,3.9993,4.0002,4.0092,4.0117,4.0159,4.0221,4.0212,4.027,4.0284,4.0346,4.0357,4.0448,4.0464,4.0475,4.0477,4.0477,4.0476,4.0501,4.0493,4.0478,4.0477,4.0476,4.0475,0,3.9861,3.9881,3.9982,4.0033,4.0048,4.0113,4.0156,4.0211,4.023,4.0309,4.0328,4.0358,4.043,4.0448,4.0534,4.0541,4.0649,4.0643,4.0633,4.0633,4.0697,4.0691,4.0901,4.0929,4.0752,4.0754,4.0755,0,3.9949,4.0011,4.0069,4.011,4.0141,4.0207,4.0249,4.026,4.0305,4.0367,4.0415,4.0486,4.0543,4.0658,4.0688,4.0753,4.0749,4.0818,4.0759,4.0757,4.0752,4.0748,4.0755,4.083,4.0831,4.0833,4.0834,0,4.0103,4.0111,4.0172,4.0237,4.0287,4.0339,4.0388,4.0423,4.0441,4.0491,4.0565,4.0609,4.0697,4.0768,4.0834,4.0863,4.0853,4.0852,4.0871,4.0872,4.0864,4.087,4.0664,4.0848,4.0846,4.0845,4.0845,4.0844,4.0213,4.0268,4.0318,4.0386,4.0425,4.0471,4.0526,4.0552,4.0614,4.0687,4.069,4.077,4.0819,4.0907,4.094,4.1003,4.0982,4.1009,4.1016,4.1023,4.1029,4.0853,4.1015,4.1014,4.1014,4.1014,4.1014,0,4.0368,4.0399,4.0462,4.0532,4.0586,4.0571,4.0625,4.0672,4.0743,4.0789,4.0846,4.0931,4.1,4.1035,4.1103,4.1147,4.1144,4.1165,4.1163,4.117,4.1043,4.1021,4.1167,4.1167,4.1167,4.1166,4.1166,4.1166,4.0455,4.0548,4.0561,4.0674,4.0704,4.0783,4.0816,4.0859,4.0896,4.0992,4.1049,4.1072,4.1114,4.1185,4.1248,4.1257,4.1283,4.1306,4.1313,4.1194,4.1178,4.1164,4.1143,4.1312,4.1312,4.1434,4.1435,4.1436]}]]